FW0671 Weather Reports


Display with metric or nautical units.
time (UTC)temp
F
wind
direction
speed
MPH
gust
MPH
rain 1hr
in
rain 24hr
in
rain mn
in
humidity
%
barometer
mb
20190819100059 72 141 1.0 10.0 0.00 0.00 0.00 44 1021.4
20190819094601 71 156 0.0 10.0 0.00 0.00 0.00 45 1021.7
20190819093045 70 146 1.0 10.0 0.00 0.00 0.00 45 1021.9
20190819091608 69 180 0.0 9.0 0.00 0.00 0.00 46 1022.2
20190819090134 68 138 2.0 7.0 0.00 0.00 0.00 48 1022.5
20190819084543 68 134 0.0 3.0 0.00 0.00 0.00 48 1022.6
20190819083103 66 141 0.0 7.0 0.00 0.00 0.00 50 1022.8
20190819081539 64 165 2.0 11.0 0.00 0.00 0.00 51 1023.0
20190819080020 64 134 2.0 7.0 0.00 0.00 0.00 53 1023.1
20190819074512 63 155 0.0 10.0 0.00 0.00 0.00 55 1023.0
20190819073003 62 144 0.0 5.0 0.00 0.00 0.00 58 1023.0
20190819071821 61 148 0.0 4.0 0.00 0.00 0.00 59 1023.0
20190819070149 59 149 0.0 4.0 0.00 0.00 0.00 62 1023.0
20190819064636 57 146 0.0 2.0 0.00 0.00 0.00 65 1022.9
20190819063128 56 147 0.0 2.0 0.00 0.00 0.00 67 1022.9
20190819061614 55 147 0.0 2.0 0.00 0.00 0.00 69 1022.7
20190819060158 53 158 0.0 1.0 0.00 0.00 0.00 72 1022.6
20190819054609 50 155 0.0 1.0 0.00 0.00 0.00 75 1022.5
20190819053105 49 155 0.0 0.0 0.00 0.00 0.00 76 1022.3
20190819051559 49 155 0.0 0.0 0.00 0.00 0.00 75 1022.2
20190819050030 49 155 0.0 1.0 0.00 0.00 0.00 75 1022.2
20190819044536 49 155 0.0 0.0 0.00 0.00 0.00 74 1022.1
20190819043044 49 155 0.0 0.0 0.00 0.00 0.00 73 1022.2
20190819041546 49 155 0.0 2.0 0.00 0.00 0.00 73 1022.0
20190819040036 50 155 0.0 0.0 0.00 0.00 0.00 72 1021.9
20190819034515 50 155 0.0 1.0 0.00 0.00 0.00 71 1021.8
20190819033018 51 155 0.0 0.0 0.00 0.00 0.00 70 1021.7
20190819031514 51 155 0.0 0.0 0.00 0.00 0.00 70 1021.6
20190819030013 51 155 0.0 1.0 0.00 0.00 0.00 69 1021.6
20190819024520 52 155 0.0 1.0 0.00 0.00 0.00 69 1021.5
20190819023101 52 155 0.0 1.0 0.00 0.00 0.00 68 1021.4
20190819021519 52 155 0.0 3.0 0.00 0.00 0.00 68 1021.4
20190819020014 52 155 0.0 2.0 0.00 0.00 0.00 68 1021.3
20190819014507 52 155 0.0 2.0 0.00 0.00 0.00 68 1021.4
20190819013012 51 156 1.0 6.0 0.00 0.00 0.00 68 1021.5
20190819011505 51 160 0.0 5.0 0.00 0.00 0.00 68 1021.5
20190819010005 51 160 0.0 0.0 0.00 0.00 0.00 68 1021.6
20190819004504 51 160 0.0 0.0 0.00 0.00 0.00 68 1021.6
20190819003412 52 161 0.0 0.0 0.00 0.00 0.00 67 1021.8
20190819001717 52 160 0.0 0.0 0.00 0.00 0.00 67 1021.9
20190819000150 52 160 0.0 1.0 0.00 0.00 0.00 67 1022.0
20190818234659 52 160 0.0 0.0 0.00 0.00 0.00 66 1022.1
20190818233119 52 160 0.0 0.0 0.00 0.00 0.00 66 1022.2
20190818231701 53 160 0.0 0.0 0.00 0.00 0.00 65 1022.5
20190818230137 53 160 0.0 0.0 0.00 0.00 0.00 64 1022.6
20190818224655 54 160 0.0 0.0 0.00 0.00 0.00 63 1022.6
20190818223131 54 160 0.0 1.0 0.00 0.00 0.00 63 1022.7
20190818221817 54 161 0.0 1.0 0.00 0.00 0.00 63 1022.7
20190818220115 54 160 0.0 2.0 0.00 0.00 0.00 63 1022.6
20190818214625 54 160 0.0 2.0 0.00 0.00 0.00 64 1022.7
20190818213056 54 159 0.0 2.0 0.00 0.00 0.00 64 1022.9
20190818211601 54 159 0.0 0.0 0.00 0.00 0.00 63 1022.6
20190818210059 54 159 0.0 0.0 0.00 0.00 0.00 63 1022.5
20190818204601 54 159 0.0 1.0 0.00 0.00 0.00 63 1022.6
20190818203116 55 159 0.0 0.0 0.00 0.00 0.00 62 1022.5
20190818201628 55 159 0.0 0.0 0.00 0.00 0.00 62 1022.4
20190818200043 55 159 0.0 0.0 0.00 0.00 0.00 62 1022.5
20190818194631 55 159 0.0 0.0 0.00 0.00 0.00 61 1022.4
20190818193115 55 159 0.0 0.0 0.00 0.00 0.00 60 1022.4
20190818191701 56 159 0.0 0.0 0.00 0.00 0.00 61 1022.4
20190818190203 56 159 0.0 0.0 0.00 0.00 0.00 60 1022.3
20190818184635 57 159 0.0 0.0 0.00 0.00 0.00 60 1022.2
20190818183053 57 159 0.0 0.0 0.00 0.00 0.00 59 1022.1
20190818181558 57 159 0.0 0.0 0.00 0.00 0.00 59 1022.0
20190818180109 58 159 0.0 0.0 0.00 0.00 0.00 59 1021.9
20190818174542 59 159 0.0 0.0 0.00 0.00 0.00 58 1021.8
20190818173149 59 159 0.0 0.0 0.00 0.00 0.00 57 1021.6
20190818171557 60 159 0.0 0.0 0.00 0.00 0.00 56 1021.5
20190818170138 61 159 0.0 0.0 0.00 0.00 0.00 55 1021.3
20190818164540 62 159 0.0 1.0 0.00 0.00 0.00 54 1021.1
20190818163114 63 159 0.0 0.0 0.00 0.00 0.00 53 1020.9
20190818161544 63 159 0.0 0.0 0.00 0.00 0.00 52 1020.9
20190818160103 64 159 0.0 1.0 0.00 0.00 0.00 51 1020.8
20190818154603 65 157 0.0 3.0 0.00 0.00 0.00 50 1020.7
20190818153051 65 188 0.0 5.0 0.00 0.00 0.00 50 1020.6
20190818151549 66 184 0.0 3.0 0.00 0.00 0.00 49 1020.4
20190818150035 67 229 0.0 5.0 0.00 0.00 0.00 48 1020.2
20190818144551 68 164 0.0 2.0 0.00 0.00 0.00 48 1020.1
20190818143052 68 154 0.0 5.0 0.00 0.00 0.00 48 1020.0
20190818141604 68 196 0.0 8.0 0.00 0.00 0.00 47 1020.0
20190818140119 69 145 3.0 11.0 0.00 0.00 0.00 46 1019.9
20190818134602 69 175 0.0 7.0 0.00 0.00 0.00 46 1019.9
20190818133035 69 160 1.0 7.0 0.00 0.00 0.00 46 1020.0
20190818131604 69 225 1.0 11.0 0.00 0.00 0.00 48 1020.1
20190818130051 69 256 1.0 11.0 0.00 0.00 0.00 47 1020.1
20190818124532 68 203 3.0 12.0 0.00 0.00 0.00 47 1020.2
20190818123037 69 146 3.0 9.0 0.00 0.00 0.00 46 1020.1
20190818121605 69 211 0.0 10.0 0.00 0.00 0.00 47 1020.2
20190818120031 68 221 0.0 11.0 0.00 0.00 0.00 50 1020.3
20190818114523 68 344 0.0 8.0 0.00 0.00 0.00 50 1020.5
20190818113019 67 167 2.0 8.0 0.00 0.00 0.00 51 1020.8
20190818111528 67 223 3.0 11.0 0.00 0.00 0.00 52 1021.0
20190818110015 67 148 0.0 7.0 0.00 0.00 0.00 53 1021.2
20190818104510 66 169 1.0 12.0 0.00 0.00 0.00 53 1021.5
20190818103009 67 130 1.0 11.0 0.00 0.00 0.00 53 1021.6
20190818101503 65 213 2.0 8.0 0.00 0.00 0.00 56 1021.9